Weather reports worldwide

Advertisment
Aguilas, Spain (8432): temperature & dewpoint: 14.06.2019 06:00:00 - 20.06.2019 06:00:00 (CEST)Aguilas, Spain (8432): wind speed & gusts: 14.06.2019 06:00:00 - 20.06.2019 06:00:00 (CEST)Aguilas, Spain (8432): wind direction: 14.06.2019 06:00:00 - 20.06.2019 06:00:00 (CEST)Aguilas, Spain (8432): reduced air pressure: 14.06.2019 06:00:00 - 20.06.2019 06:00:00 (CEST)Aguilas, Spain (8432): visibility: 14.06.2019 06:00:00 - 20.06.2019 06:00:00 (CEST)Aguilas, Spain (8432): sunshine duration: 14.06.2019 06:00:00 - 20.06.2019 06:00:00 (CEST)Aguilas, Spain (8432): precipitation: 14.06.2019 06:00:00 - 20.06.2019 06:00:00 (CEST)
Date & Time tt [°C] td [°C] ff [km/h] ff [kn] fx [km/h] fx [kn] dd ppp [hPa] vv [km] sd [min] rr [mm]
20.06.2019 06:00:00 - - - - - - - - - - -
20.06.2019 05:00:00 19,3 15,5 4 2 8 4 E 1011,4 17 0 0,0
20.06.2019 04:00:00 19,7 15,3 4 2 - - NNW 1011,3 17 - -
20.06.2019 03:00:00 20,3 16,1 3 1 9 5 ENE 1011,9 16 0 0,0
20.06.2019 02:00:00 20,6 16,0 3 2 11 6 NNE 1012,3 19 0 -
20.06.2019 01:00:00 20,9 16,3 6 4 13 7 E 1012,3 20 0 0,0
20.06.2019 00:00:00 21,2 16,1 8 4 14 8 E 1012,5 20 0 0,0
19.06.2019 23:00:00 21,4 16,4 8 4 19 10 E 1012,2 20 0 0,0
19.06.2019 22:00:00 21,9 16,4 10 5 23 13 E 1011,7 20 0 0,0
19.06.2019 21:00:00 23,0 16,3 14 7 24 13 SE 1011,4 20 45 0,0
19.06.2019 20:00:00 24,4 16,4 12 7 23 12 SE 1011,3 20 60 -
19.06.2019 19:00:00 24,1 16,4 13 7 22 12 SE 1011,5 20 59 0,0
19.06.2019 18:00:00 25,0 16,7 9 5 18 10 SE 1011,9 20 53 0,0
19.06.2019 17:00:00 26,7 14,1 6 3 14 8 SE 1012,5 20 60 0,0
19.06.2019 16:00:00 - - - - - - - - - - -
19.06.2019 15:00:00 - - - - - - - - - - -
19.06.2019 14:00:00 24,9 14,6 8 4 18 10 SSW 1014,6 20 60 -
19.06.2019 13:00:00 24,0 16,3 12 6 22 12 S 1014,9 15 60 0,0
19.06.2019 12:00:00 24,7 15,9 8 4 14 8 SSW 1014,6 17 60 0,0
19.06.2019 11:00:00 - - - - - - - - - - -
19.06.2019 10:00:00 - - - - - - - - - - -
19.06.2019 09:00:00 - - - - - - - - - - -
19.06.2019 08:00:00 - - - - - - - - - - -
19.06.2019 07:00:00 - - - - - - - - - - -
19.06.2019 06:00:00 - - - - - - - - - - -
19.06.2019 05:00:00 - - - - - - - - - - -
19.06.2019 04:00:00 - - - - - - - - - - -
19.06.2019 03:00:00 - - - - - - - - - - -
19.06.2019 02:00:00 - - - - - - - - - - -
19.06.2019 01:00:00 - - - - - - - - - - -
19.06.2019 00:00:00 - - - - - - - - - - -
18.06.2019 23:00:00 - - - - - - - - - - -
18.06.2019 22:00:00 - - - - - - - - - - -
18.06.2019 21:00:00 - - - - - - - - - - -
18.06.2019 20:00:00 - - - - - - - - - - -
18.06.2019 19:00:00 24,0 16,6 8 5 18 10 SSW 1013,6 20 60 0,0
18.06.2019 18:00:00 24,2 16,5 9 5 20 11 S 1014,1 20 60 0,0
18.06.2019 17:00:00 24,5 16,2 11 6 23 13 SSW 1014,5 19 60 0,0
18.06.2019 16:00:00 24,5 16,0 11 6 21 12 S 1015,0 20 60 0,0
18.06.2019 15:00:00 24,5 16,0 10 5 21 11 SSW 1015,5 20 60 0,0
18.06.2019 14:00:00 24,4 15,1 10 5 21 11 S 1016,0 19 60 -
18.06.2019 13:00:00 23,7 15,7 10 5 22 12 S 1016,6 20 60 0,0
18.06.2019 12:00:00 23,7 16,0 10 5 19 11 S 1016,5 20 60 0,0
18.06.2019 11:00:00 23,3 15,9 9 5 19 11 S 1016,4 20 60 0,0
18.06.2019 10:00:00 23,2 15,8 8 4 15 8 S 1016,2 20 60 0,0
18.06.2019 09:00:00 23,1 15,2 3 2 7 4 SSE 1015,9 20 60 0,0
18.06.2019 08:00:00 20,5 13,5 4 2 7 4 NE 1015,6 20 49 -
18.06.2019 07:00:00 18,5 13,6 3 2 8 4 NNE 1015,4 15 0 0,0
18.06.2019 06:00:00 18,6 13,3 4 2 9 5 NE 1015,2 20 0 0,0
18.06.2019 05:00:00 18,9 13,9 5 3 8 5 NE 1015,0 20 0 0,0
18.06.2019 04:00:00 18,7 14,1 4 2 8 5 ENE 1015,3 11 0 0,0
18.06.2019 03:00:00 18,7 13,4 1 1 7 4 NE 1015,6 19 0 0,0
18.06.2019 02:00:00 18,5 12,4 2 1 4 2 E 1015,9 20 0 -
18.06.2019 01:00:00 19,3 12,1 3 2 6 3 NW 1016,6 20 0 0,0
18.06.2019 00:00:00 19,7 12,0 2 1 6 4 W 1016,8 20 0 0,0
17.06.2019 23:00:00 20,8 14,7 4 2 7 4 W 1016,5 20 0 0,0
17.06.2019 22:00:00 21,4 14,8 3 2 6 3 W 1016,0 20 0 0,0
17.06.2019 21:00:00 22,9 14,7 4 2 13 7 SSE 1015,8 20 54 0,0
17.06.2019 20:00:00 24,4 14,8 7 4 14 7 SSW 1015,7 20 60 -
17.06.2019 19:00:00 25,0 13,6 5 3 14 7 SSW 1015,6 20 60 0,0
17.06.2019 18:00:00 23,8 14,8 8 5 16 9 SSW 1016,1 20 60 0,0
17.06.2019 17:00:00 23,7 15,4 10 5 21 12 SSW 1016,6 20 60 0,0
17.06.2019 16:00:00 24,1 15,6 10 5 21 11 S 1017,0 20 60 0,0
17.06.2019 15:00:00 23,7 15,7 10 5 23 13 SSW 1017,2 16 60 0,0
17.06.2019 14:00:00 24,2 15,7 9 5 22 12 SW 1017,9 20 60 -
17.06.2019 13:00:00 23,5 16,0 13 7 23 13 S 1017,9 18 60 0,0
17.06.2019 12:00:00 23,2 15,5 11 6 21 11 SSW 1018,1 12 60 0,0
17.06.2019 11:00:00 23,5 13,9 13 7 20 11 SSW 1018,3 20 60 0,0
17.06.2019 10:00:00 22,8 15,2 6 3 12 7 S 1018,3 18 60 0,0
17.06.2019 09:00:00 22,5 13,6 4 2 8 4 S 1018,3 20 60 0,0
17.06.2019 08:00:00 18,7 9,2 1 1 7 4 S 1017,9 20 49 -
17.06.2019 07:00:00 17,6 13,8 4 2 8 4 NNW 1017,4 13 0 0,0
17.06.2019 06:00:00 18,9 15,0 4 2 8 5 NNE 1017,5 16 0 0,0
17.06.2019 05:00:00 19,2 14,9 2 1 6 4 NNE 1017,6 16 0 0,0
17.06.2019 04:00:00 19,8 15,4 4 2 6 3 NE 1018,1 17 0 0,0
17.06.2019 03:00:00 19,3 13,5 4 2 8 4 N 1018,3 20 0 0,0
17.06.2019 02:00:00 18,7 11,2 4 2 10 5 NW 1018,7 20 0 -
17.06.2019 01:00:00 19,6 13,8 7 4 11 6 NW 1018,9 20 0 0,0
17.06.2019 00:00:00 20,4 15,4 5 3 11 6 WNW 1019,0 20 0 0,0
16.06.2019 23:00:00 21,0 15,5 5 3 10 5 WNW 1018,6 20 0 0,0
16.06.2019 22:00:00 22,5 13,6 2 1 10 5 E 1018,0 20 0 0,0
16.06.2019 21:00:00 23,7 14,4 8 4 23 12 ESE 1017,7 20 29 0,0
16.06.2019 20:00:00 25,0 13,9 14 8 29 16 E 1017,6 20 44 -
16.06.2019 19:00:00 26,0 14,8 16 9 36 19 ESE 1017,5 20 60 0,0
16.06.2019 18:00:00 25,7 14,1 23 12 38 21 ESE 1017,6 20 37 0,0
16.06.2019 17:00:00 26,2 13,9 21 11 39 21 ESE 1017,8 17 59 0,0
16.06.2019 16:00:00 24,4 14,5 19 10 38 21 ESE 1018,4 20 0 0,0
16.06.2019 15:00:00 24,3 14,7 19 11 36 19 ESE 1018,7 19 0 0,0
16.06.2019 14:00:00 25,1 14,8 18 10 32 17 ESE 1018,8 20 9 -
16.06.2019 13:00:00 26,4 10,9 18 10 31 17 ESE 1018,8 20 28 0,0
16.06.2019 12:00:00 25,9 8,0 17 9 28 15 SE 1019,1 20 38 0,0
16.06.2019 11:00:00 25,9 5,9 14 7 23 13 ESE 1019,3 20 43 0,0
16.06.2019 10:00:00 24,5 6,7 8 4 18 10 ESE 1019,5 20 51 0,0
16.06.2019 09:00:00 22,5 10,6 5 3 10 5 E 1019,2 20 58 0,0
16.06.2019 08:00:00 19,8 8,5 3 1 8 4 N 1018,9 20 50 -
16.06.2019 07:00:00 17,4 9,8 5 3 9 5 NE 1018,0 20 0 0,0
16.06.2019 06:00:00 17,4 10,0 4 2 9 5 N 1017,6 20 0 0,0
16.06.2019 05:00:00 17,1 9,3 4 2 8 4 N 1017,2 20 0 0,0
16.06.2019 04:00:00 18,4 10,5 4 2 8 4 N 1017,6 20 0 0,0
16.06.2019 03:00:00 18,9 12,8 3 1 7 4 NE 1017,9 20 0 0,0
16.06.2019 02:00:00 19,3 12,7 3 2 6 4 NE 1018,3 20 0 -
16.06.2019 01:00:00 19,6 13,1 5 3 8 4 N 1018,7 17 0 0,0
16.06.2019 00:00:00 20,0 14,6 3 2 5 3 E 1018,4 20 0 0,0
15.06.2019 23:00:00 20,5 14,8 3 2 6 3 E 1018,0 20 0 0,0
15.06.2019 22:00:00 21,0 14,6 3 1 10 5 SSE 1017,4 20 0 0,0
15.06.2019 21:00:00 22,2 14,8 5 3 16 9 SSE 1016,8 20 54 0,0
15.06.2019 20:00:00 23,5 13,9 8 5 14 8 S 1016,6 20 60 -
15.06.2019 19:00:00 24,6 10,9 9 5 15 8 SSE 1016,4 20 60 0,0
15.06.2019 18:00:00 25,1 8,5 8 5 17 9 SSE 1016,6 20 60 0,0
15.06.2019 17:00:00 25,3 10,8 8 5 19 10 S 1017,0 20 60 0,0
15.06.2019 16:00:00 24,3 11,2 10 5 23 13 S 1017,5 20 60 0,0
15.06.2019 15:00:00 24,7 13,0 11 6 24 13 S 1017,9 20 60 0,0
15.06.2019 14:00:00 24,5 13,9 12 6 29 16 SSE 1018,1 20 60 -
15.06.2019 13:00:00 24,8 11,3 17 9 29 16 SSE 1018,2 20 60 0,0
15.06.2019 12:00:00 26,0 7,6 13 7 23 12 SSE 1018,0 20 60 0,0
15.06.2019 11:00:00 25,3 7,4 5 3 14 8 SSW 1017,9 20 60 0,0
15.06.2019 10:00:00 24,4 8,0 7 4 13 7 S 1017,6 20 60 0,0
15.06.2019 09:00:00 24,1 11,8 4 2 9 5 ESE 1017,1 20 60 0,0
15.06.2019 08:00:00 20,7 11,6 1 1 7 4 N 1016,5 20 49 -
15.06.2019 07:00:00 18,4 11,0 1 1 11 6 NNW 1015,9 4,5 0 0,0
15.06.2019 06:00:00 19,4 13,8 5 3 11 6 NNE 1015,5 17 0 0,0
15.06.2019 05:00:00 19,0 11,3 3 2 11 6 S 1015,1 20 0 0,0
15.06.2019 04:00:00 19,3 10,5 4 2 8 4 SW 1014,4 20 0 0,0
15.06.2019 03:00:00 20,0 12,2 3 2 7 4 N 1014,3 20 0 0,0
15.06.2019 02:00:00 20,5 12,4 4 2 6 4 N 1014,1 20 0 -
15.06.2019 01:00:00 20,9 13,4 2 1 10 5 SE 1013,9 20 0 0,0
15.06.2019 00:00:00 21,5 14,1 5 3 9 5 ESE 1013,5 20 0 0,0
14.06.2019 23:00:00 22,3 13,4 6 3 9 5 E 1013,0 14 0 0,0
14.06.2019 22:00:00 23,2 11,6 2 1 15 8 SSW 1012,3 20 0 0,0
14.06.2019 21:00:00 24,6 12,2 7 4 21 11 SSW 1011,8 20 45 0,0
14.06.2019 20:00:00 25,8 11,9 9 5 26 14 SW 1011,5 20 58 -
14.06.2019 19:00:00 25,9 11,7 16 9 36 20 SSW 1011,3 20 60 0,0
14.06.2019 18:00:00 26,8 10,5 19 10 40 22 SSW 1011,5 20 60 0,0
14.06.2019 17:00:00 27,8 11,3 15 8 35 19 SSW 1011,6 20 60 0,0
14.06.2019 16:00:00 28,2 10,4 16 9 37 20 SW 1011,9 20 60 0,0
14.06.2019 15:00:00 27,7 12,5 11 6 22 12 SSW 1011,9 20 60 0,0
14.06.2019 14:00:00 25,6 14,7 9 5 24 13 S 1012,8 20 60 -
14.06.2019 13:00:00 25,2 16,0 13 7 21 11 SSW 1013,2 18 60 0,0
14.06.2019 12:00:00 25,1 15,7 8 4 15 8 S 1013,3 18 60 0,0
14.06.2019 11:00:00 23,8 16,3 7 4 15 8 SSE 1013,1 20 60 0,0
14.06.2019 10:00:00 23,1 17,3 3 1 9 5 S 1012,6 18 59 0,0
14.06.2019 09:00:00 21,0 17,6 3 1 10 5 NE 1012,0 20 11 0,0
14.06.2019 08:00:00 20,2 17,2 7 4 14 8 W 1011,6 11 0 -
14.06.2019 07:00:00 20,2 16,8 5 3 17 9 E 1010,9 10 0 2,6
14.06.2019 06:00:00 20,9 16,0 11 6 25 13 SW 1010,9 19 0 0,0

tt = temperature
td = dewpoint
ff = wind speed
fx = gusts
dd = wind direction
ppp = reduced air pressure
vv = visibility
sd = sunshine duration
rr = precipitation

Next stations